Location: Ellerstadt
(49.4644°N, 8.2615°E)
Time: 00:12:27
(UTC+00:00)

OBJECT-B - Pass Details

Date: 03 March 2021
Orbit: 414 x 427 km, 97.0° (Epoch: 11 April)

Event Time Altitude Azimuth Distance (km) Brightness Sun altitude
Exits shadow 19:38:15 41° 294° (WNW) 627 2.0 -24.1°
Drops below altitude 10° 19:40:50 10° 336° (NNW) 1,515 4.1 -24.5°
Sets 19:42:53 0° 343° (NNW) 2,382 5.1 -24.8°
